When you browse on this site, cookies collect data to enhance your experience and personalize the content and advertising you see.
Visit our Privacy Policy to learn more. By continuing to use the site, you agree to this use of cookies and data.
  • In Sweden
  • List of Countries
  • For 7 days
  • Water Temperature
  • Satellite Maps
  • Weather Map
  • Weather Widgets
  • user-avatar
    Login

    Hourly Weather Michkasskie Vyselki

    Today, 22 May, Wednesday

    Time Temperature Precipitation Wind Pressure Humidity
    00:00 +12°C° 0 mm 3 mps 748 mmHg 57%
    01:00 +12°C° 0 mm 3 mps 748 mmHg 66%
    02:00 +12°C° 0 mm 3 mps 748 mmHg 75%
    03:00 +12°C° 0 mm 2 mps 748 mmHg 82%
    04:00 +12°C° 0 mm 3 mps 748 mmHg 81%
    05:00 +13°C° 0 mm 3 mps 747 mmHg 81%
    06:00 +14°C° 0 mm 4 mps 747 mmHg 80%
    07:00 +15°C° 0 mm 4 mps 747 mmHg 75%
    08:00 +18°C° 0 mm 4 mps 747 mmHg 70%
    09:00 +20°C° 0 mm 5 mps 746 mmHg 64%
    10:00 +21°C° 0.2 mm 5 mps 746 mmHg 61%
    11:00 +22°C° 0.2 mm 5 mps 746 mmHg 58%
    12:00 +22°C° 0.2 mm 5 mps 745 mmHg 54%
    13:00 +23°C° 0.1 mm 5 mps 745 mmHg 53%
    14:00 +23°C° 0.1 mm 5 mps 745 mmHg 52%
    15:00 +23°C° 0.1 mm 5 mps 744 mmHg 51%
    16:00 +23°C° 0 mm 5 mps 744 mmHg 56%
    17:00 +22°C° 0 mm 4 mps 744 mmHg 61%
    18:00 +22°C° 0 mm 3 mps 744 mmHg 67%
    19:00 +20°C° 0 mm 3 mps 744 mmHg 72%
    20:00 +18°C° 0 mm 4 mps 743 mmHg 77%
    21:00 +17°C° 0 mm 4 mps 743 mmHg 82%
    22:00 +15°C° 0 mm 4 mps 743 mmHg 83%
    23:00 +14°C° 0 mm 4 mps 743 mmHg 85%

    Tomorrow, 23 May, Thursday

    Time Temperature Precipitation Wind Pressure Humidity
    00:00 +14°C° 0 mm 4 mps 743 mmHg 87%
    01:00 +14°C° 0 mm 4 mps 743 mmHg 81%
    02:00 +14°C° 0 mm 4 mps 742 mmHg 76%
    03:00 +14°C° 0 mm 4 mps 742 mmHg 70%
    04:00 +14°C° 0 mm 4 mps 742 mmHg 71%
    05:00 +14°C° 0 mm 4 mps 742 mmHg 72%
    06:00 +13°C° 0 mm 4 mps 741 mmHg 73%
    07:00 +15°C° 0 mm 4 mps 741 mmHg 69%
    08:00 +18°C° 0 mm 4 mps 741 mmHg 65%
    09:00 +19°C° 0 mm 5 mps 740 mmHg 62%
    10:00 +20°C° 0 mm 5 mps 740 mmHg 58%
    11:00 +21°C° 0 mm 5 mps 740 mmHg 55%
    12:00 +23°C° 0 mm 5 mps 739 mmHg 52%
    13:00 +23°C° 0 mm 5 mps 739 mmHg 52%
    14:00 +23°C° 0 mm 5 mps 739 mmHg 53%
    15:00 +23°C° 0 mm 5 mps 738 mmHg 54%
    16:00 +23°C° 0 mm 4 mps 738 mmHg 58%
    17:00 +24°C° 0 mm 3 mps 738 mmHg 63%
    18:00 +23°C° 0 mm 2 mps 737 mmHg 67%
    19:00 +21°C° 0.2 mm 2 mps 737 mmHg 72%
    20:00 +19°C° 0.2 mm 2 mps 737 mmHg 77%
    21:00 +17°C° 0.2 mm 2 mps 737 mmHg 83%
    22:00 +17°C° 0 mm 2 mps 737 mmHg 85%
    23:00 +16°C° 0 mm 2 mps 737 mmHg 86%

    Day after tomorrow, 24 May, Friday

    Time Temperature Precipitation Wind Pressure Humidity
    00:00 +16°C° 0 mm 2 mps 737 mmHg 88%
    01:00 +15°C° 0 mm 2 mps 738 mmHg 90%
    02:00 +15°C° 0 mm 2 mps 738 mmHg 92%
    03:00 +14°C° 0 mm 2 mps 738 mmHg 94%
    04:00 +13°C° 0 mm 3 mps 738 mmHg 94%
    05:00 +14°C° 0 mm 4 mps 739 mmHg 94%
    06:00 +14°C° 0 mm 4 mps 739 mmHg 94%
    07:00 +13°C° 0 mm 5 mps 740 mmHg 92%
    08:00 +13°C° 0 mm 5 mps 740 mmHg 90%
    09:00 +13°C° 0 mm 5 mps 741 mmHg 89%
    10:00 +14°C° 0 mm 5 mps 741 mmHg 83%
    11:00 +15°C° 0 mm 5 mps 741 mmHg 77%
    12:00 +16°C° 0 mm 5 mps 742 mmHg 71%
    13:00 +17°C° 0 mm 5 mps 742 mmHg 68%
    14:00 +17°C° 0 mm 5 mps 742 mmHg 65%
    15:00 +19°C° 0 mm 5 mps 743 mmHg 62%
    16:00 +19°C° 0 mm 5 mps 743 mmHg 63%
    17:00 +18°C° 0 mm 4 mps 743 mmHg 64%
    18:00 +17°C° 0 mm 4 mps 743 mmHg 65%
    19:00 +15°C° 0 mm 4 mps 744 mmHg 67%
    20:00 +13°C° 0 mm 4 mps 744 mmHg 70%
    21:00 +11°C° 0 mm 4 mps 745 mmHg 72%
    22:00 +10°C° 0 mm 4 mps 745 mmHg 72%
    23:00 +10°C° 0 mm 4 mps 745 mmHg 71%

    25 May, Saturday

    Time Temperature Precipitation Wind Pressure Humidity
    00:00 +8°C° 0 mm 4 mps 745 mmHg 71%
    01:00 +8°C° 0 mm 4 mps 745 mmHg 73%
    02:00 +8°C° 0 mm 4 mps 746 mmHg 74%
    03:00 +7°C° 0 mm 4 mps 746 mmHg 76%
    04:00 +8°C° 0 mm 4 mps 746 mmHg 73%
    05:00 +8°C° 0 mm 5 mps 746 mmHg 69%
    06:00 +8°C° 0 mm 5 mps 746 mmHg 65%
    07:00 +10°C° 0 mm 6 mps 746 mmHg 64%
    08:00 +11°C° 0 mm 6 mps 746 mmHg 63%
    09:00 +14°C° 0 mm 6 mps 746 mmHg 61%
    10:00 +14°C° 0 mm 6 mps 745 mmHg 62%
    11:00 +15°C° 0 mm 7 mps 745 mmHg 63%
    12:00 +16°C° 0 mm 7 mps 745 mmHg 63%
    13:00 +16°C° 0.2 mm 6 mps 745 mmHg 68%
    14:00 +16°C° 0.2 mm 6 mps 744 mmHg 72%
    15:00 +15°C° 0.2 mm 6 mps 744 mmHg 77%
    16:00 +16°C° 0 mm 6 mps 743 mmHg 76%
    17:00 +16°C° 0 mm 6 mps 743 mmHg 75%
    18:00 +17°C° 0 mm 6 mps 742 mmHg 74%
    19:00 +16°C° 0 mm 6 mps 742 mmHg 75%
    20:00 +16°C° 0 mm 6 mps 742 mmHg 76%
    21:00 +15°C° 0 mm 6 mps 742 mmHg 77%
    22:00 +15°C° 0 mm 6 mps 741 mmHg 79%
    23:00 +15°C° 0 mm 6 mps 741 mmHg 80%

    26 May, Sunday

    Time Temperature Precipitation Wind Pressure Humidity
    00:00 +14°C° 0 mm 6 mps 741 mmHg 82%
    01:00 +14°C° 0.4 mm 6 mps 740 mmHg 86%
    02:00 +14°C° 0.4 mm 5 mps 740 mmHg 90%
    03:00 +14°C° 0.4 mm 5 mps 740 mmHg 93%
    04:00 +14°C° 0 mm 5 mps 740 mmHg 93%
    05:00 +14°C° 0 mm 6 mps 739 mmHg 93%
    06:00 +15°C° 0 mm 6 mps 739 mmHg 93%
    07:00 +16°C° 0 mm 6 mps 739 mmHg 91%
    08:00 +16°C° 0 mm 6 mps 738 mmHg 89%
    09:00 +17°C° 0 mm 6 mps 738 mmHg 86%
    10:00 +19°C° 0.8 mm 6 mps 738 mmHg 82%
    11:00 +20°C° 0.8 mm 6 mps 738 mmHg 77%
    12:00 +21°C° 0.8 mm 6 mps 737 mmHg 73%
    13:00 +20°C° 0.6 mm 5 mps 737 mmHg 78%
    14:00 +19°C° 0.6 mm 5 mps 737 mmHg 83%
    15:00 +18°C° 0.6 mm 4 mps 736 mmHg 87%
    16:00 +19°C° 0.5 mm 4 mps 736 mmHg 86%
    17:00 +19°C° 0.5 mm 3 mps 736 mmHg 85%
    18:00 +20°C° 0.5 mm 3 mps 736 mmHg 84%
    19:00 +19°C° 1.7 mm 3 mps 736 mmHg 86%
    20:00 +18°C° 1.7 mm 3 mps 736 mmHg 88%
    21:00 +17°C° 1.7 mm 3 mps 736 mmHg 90%
    22:00 +16°C° 0.3 mm 3 mps 736 mmHg 91%
    23:00 +16°C° 0.3 mm 3 mps 736 mmHg 93%

    27 May, Monday

    Time Temperature Precipitation Wind Pressure Humidity
    00:00 +16°C° 0.3 mm 3 mps 736 mmHg 95%
    01:00 +16°C° 0.3 mm 3 mps 736 mmHg 96%
    02:00 +16°C° 0.3 mm 3 mps 736 mmHg 96%
    03:00 +16°C° 0.3 mm 3 mps 736 mmHg 97%
    04:00 +14°C° 0 mm 4 mps 737 mmHg 95%
    05:00 +14°C° 0 mm 4 mps 737 mmHg 93%
    06:00 +14°C° 0 mm 5 mps 737 mmHg 91%
    07:00 +15°C° 0 mm 5 mps 738 mmHg 85%
    08:00 +16°C° 0 mm 6 mps 738 mmHg 78%
    09:00 +17°C° 0 mm 6 mps 738 mmHg 72%
    10:00 +17°C° 0.1 mm 6 mps 738 mmHg 72%
    11:00 +17°C° 0.1 mm 6 mps 739 mmHg 71%
    12:00 +17°C° 0.1 mm 7 mps 739 mmHg 70%
    13:00 +17°C° 0.2 mm 7 mps 739 mmHg 70%
    14:00 +17°C° 0.2 mm 8 mps 739 mmHg 69%
    15:00 +17°C° 0.2 mm 8 mps 739 mmHg 68%
    16:00 +16°C° 0.2 mm 8 mps 739 mmHg 69%
    17:00 +16°C° 0.2 mm 7 mps 739 mmHg 69%
    18:00 +15°C° 0.2 mm 6 mps 740 mmHg 70%
    19:00 +13°C° 0.1 mm 6 mps 740 mmHg 73%
    20:00 +12°C° 0.1 mm 5 mps 741 mmHg 76%
    21:00 +9°C° 0.1 mm 5 mps 741 mmHg 79%
    22:00 +9°C° 0 mm 5 mps 742 mmHg 79%
    23:00 +8°C° 0 mm 5 mps 742 mmHg 80%
    Show more